K7TUS-6 Weather Reports


Display with metric or nautical units.
time (UTC)temp
F
wind
direction
speed
MPH
gust
MPH
rain 1hr
in
rain 24hr
in
rain mn
in
humidity
%
barometer
mb
20260505224009 45 164 8.0 8.0 0.00 0.00 0.00 32 977.4
20260505223508 46 102 6.0 7.0 0.00 0.00 0.00 29 977.0
20260505223008 46 93 3.0 6.0 0.00 0.00 0.00 35 976.9
20260505222507 45 75 2.0 2.0 0.00 0.00 0.00 32 976.5
20260505222006 45 29 4.0 4.0 0.00 0.00 0.00 32 976.6
20260505221506 45 29 4.0 5.0 0.00 0.00 0.00 32 976.6
20260505221005 46 16 4.0 4.0 0.00 0.00 0.00 32 976.8
20260505215506 46 151 7.0 12.0 0.00 0.00 0.00 32 977.0
20260505215006 45 161 7.0 15.0 0.00 0.00 0.00 33 977.1
20260505214505 45 158 10.0 16.0 0.00 0.00 0.00 31 977.8
20260505214004 46 69 6.0 10.0 0.00 0.00 0.00 32 976.8
20260505213504 46 148 7.0 12.0 0.00 0.00 0.00 36 976.1
20260505213003 45 107 6.0 10.0 0.00 0.00 0.00 36 975.9
20260505212509 44 109 10.0 19.0 0.00 0.00 0.00 33 976.0
20260505212008 43 66 7.0 9.0 0.00 0.00 0.00 36 976.5
20260505211007 43 78 8.0 15.0 0.00 0.00 0.00 38 977.0
20260505210505 42 51 6.0 9.0 0.00 0.00 0.00 39 977.1
20260505210005 40 162 17.0 23.0 0.00 0.00 0.00 37 976.8
20260505205510 39 170 18.0 26.0 0.00 0.00 0.00 39 977.6
20260505204503 42 99 8.0 16.0 0.00 0.00 0.00 48 976.4
20260505204003 40 162 18.0 25.0 0.00 0.00 0.00 44 975.9
20260505203502 40 127 16.0 24.0 0.00 0.00 0.00 45 977.0
20260505203008 39 173 11.0 23.0 0.00 0.00 0.00 45 977.1
20260505202507 39 166 15.0 21.0 0.00 0.00 0.00 43 977.4
20260505202006 40 158 13.0 18.0 0.00 0.00 0.00 44 977.4
20260505201006 41 353 5.0 11.0 0.00 0.00 0.00 47 977.4
20260505200505 42 138 8.0 17.0 0.00 0.00 0.00 46 977.6
20260505200004 40 162 9.0 22.0 0.00 0.00 0.00 43 977.2
20260505195510 42 44 9.0 12.0 0.00 0.00 0.00 41 977.3
20260505195006 42 28 9.0 11.0 0.00 0.00 0.00 43 976.6
20260505194005 42 87 6.0 10.0 0.00 0.00 0.00 46 976.6
20260505193504 42 143 6.0 10.0 0.00 0.00 0.00 47 976.2
20260505193004 42 55 6.0 13.0 0.00 0.00 0.00 50 976.7
20260505192503 42 63 8.0 17.0 0.00 0.00 0.00 50 976.4
20260505192003 40 2 9.0 27.0 0.00 0.00 0.00 41 976.6
20260505191508 41 90 18.0 31.0 0.00 0.00 0.00 43 977.1
20260505191007 42 179 4.0 9.0 0.00 0.00 0.00 49 977.1
20260505190006 43 13 5.0 8.0 0.00 0.00 0.00 49 977.1
20260505185506 43 23 10.0 13.0 0.00 0.00 0.00 43 977.0
20260505185005 42 9 8.0 11.0 0.00 0.00 0.00 44 977.1
20260505184504 42 20 5.0 8.0 0.00 0.00 0.00 50 976.7
20260505184004 41 9 12.0 12.0 0.00 0.00 0.00 48 976.8
20260505183509 41 9 12.0 12.0 0.00 0.00 0.00 48 976.8
20260505183008 41 9 10.0 12.0 0.00 0.00 0.00 48 976.8
20260505182006 41 352 16.0 16.0 0.00 0.00 0.00 45 978.1
20260505181506 41 88 7.0 11.0 0.00 0.00 0.00 49 977.9
20260505180505 41 354 9.0 9.0 0.00 0.00 0.00 46 976.9
20260505180004 41 4 9.0 11.0 0.00 0.00 0.00 46 978.5
20260505175503 41 7 13.0 13.0 0.00 0.00 0.00 47 976.8
20260505175003 40 168 8.0 15.0 0.00 0.00 0.00 47 977.1
20260505174508 41 358 9.0 14.0 0.00 0.00 0.00 44 977.5
20260505174008 41 94 11.0 15.0 0.00 0.00 0.00 43 976.3
20260505173007 41 4 9.0 10.0 0.00 0.00 0.00 44 976.5
20260505172506 42 9 11.0 14.0 0.00 0.00 0.00 44 977.0
20260505172006 41 8 9.0 13.0 0.00 0.00 0.00 45 976.6
20260505171505 42 8 12.0 15.0 0.00 0.00 0.00 43 976.7
20260505171004 41 358 12.0 15.0 0.00 0.00 0.00 44 976.3
20260505170504 41 332 7.0 12.0 0.00 0.00 0.00 46 976.4
20260505170003 40 336 10.0 14.0 0.00 0.00 0.00 43 976.9
20260505165508 40 331 7.0 14.0 0.00 0.00 0.00 49 977.0
20260505165008 40 332 7.0 15.0 0.00 0.00 0.00 48 978.3
20260505164507 41 344 12.0 15.0 0.00 0.00 0.00 43 977.3
20260505163506 40 345 10.0 15.0 0.00 0.00 0.00 46 977.1
20260505163007 40 337 10.0 14.0 0.00 0.00 0.00 44 977.4
20260505162004 40 287 9.0 13.0 0.00 0.00 0.00 45 977.2
20260505161504 41 347 12.0 16.0 0.00 0.00 0.00 42 976.9
20260505161003 40 225 7.0 12.0 0.00 0.00 0.00 50 977.2
20260505153006 40 340 12.0 13.0 0.00 0.00 0.00 44 976.9
20260505152505 40 281 12.0 15.0 0.00 0.00 0.00 45 976.1
20260505152004 40 337 10.0 13.0 0.00 0.00 0.00 46 976.5
20260505151503 39 340 8.0 13.0 0.00 0.00 0.00 47 976.3
20260505150509 38 185 3.0 7.0 0.00 0.00 0.00 52 976.9
20260505140504 38 214 10.0 10.0 0.00 0.00 0.00 49 975.9
20260505125007 39 344 14.0 18.0 0.00 0.00 0.00 44 975.2
20260505124506 39 346 11.0 15.0 0.00 0.00 0.00 46 975.4
20260505124006 39 336 14.0 16.0 0.00 0.00 0.00 45 975.5
20260505123505 40 345 16.0 18.0 0.00 0.00 0.00 43 975.5
20260505123005 39 277 10.0 16.0 0.00 0.00 0.00 47 975.3
20260505122504 39 351 9.0 14.0 0.00 0.00 0.00 46 975.0
20260505122004 40 332 13.0 16.0 0.00 0.00 0.00 45 975.3
20260505121503 40 319 12.0 14.0 0.00 0.00 0.00 45 975.6
20260505121002 40 327 16.0 18.0 0.00 0.00 0.00 43 975.0
20260505120508 40 333 14.0 16.0 0.00 0.00 0.00 44 974.4
20260505115507 39 322 6.0 11.0 0.00 0.00 0.00 48 975.2
20260505115006 40 310 12.0 16.0 0.00 0.00 0.00 45 974.4
20260505114506 40 339 15.0 19.0 0.00 0.00 0.00 43 975.6
20260505113505 40 332 14.0 16.0 0.00 0.00 0.00 44 975.6
20260505113004 40 328 15.0 19.0 0.00 0.00 0.00 44 975.6
20260505112503 41 340 14.0 17.0 0.00 0.00 0.00 45 975.5
20260505112003 41 322 17.0 20.0 0.00 0.00 0.00 45 975.6
20260505111508 41 315 18.0 22.0 0.00 0.00 0.00 44 976.1
20260505111008 41 331 16.0 19.0 0.00 0.00 0.00 44 975.1
20260505110506 40 310 18.0 20.0 0.00 0.00 0.00 44 975.1
20260505102007 40 322 17.0 21.0 0.00 0.00 0.00 46 976.9
20260505101506 40 333 17.0 21.0 0.00 0.00 0.00 44 976.5
20260505101006 39 290 14.0 20.0 0.00 0.00 0.00 46 976.4
20260505100005 40 325 15.0 22.0 0.00 0.00 0.00 45 976.0
20260505095504 40 338 14.0 19.0 0.00 0.00 0.00 45 975.3
20260505095004 40 304 16.0 21.0 0.00 0.00 0.00 45 976.0
20260505094503 39 290 13.0 22.0 0.00 0.00 0.00 46 975.5
20260505094003 39 339 13.0 20.0 0.00 0.00 0.00 47 976.6
20260505093002 39 301 16.0 19.0 0.00 0.00 0.00 45 976.7
20260505092508 39 293 18.0 24.0 0.00 0.00 0.00 45 976.3
20260505092007 39 301 17.0 20.0 0.00 0.00 0.00 45 976.0
20260505091507 39 328 19.0 23.0 0.00 0.00 0.00 45 976.7
20260505091006 39 305 19.0 24.0 0.00 0.00 0.00 44 976.8
20260505090505 39 324 12.0 18.0 0.00 0.00 0.00 46 977.5
20260505090005 39 299 17.0 23.0 0.00 0.00 0.00 45 977.3
20260505085004 38 325 9.0 9.0 0.00 0.00 0.00 46 978.2
20260505084503 38 300 11.0 14.0 0.00 0.00 0.00 46 978.2
20260505084009 38 282 11.0 11.0 0.00 0.00 0.00 47 978.7
20260505083508 38 330 10.0 17.0 0.00 0.00 0.00 46 978.7
20260505082507 38 287 11.0 12.0 0.00 0.00 0.00 47 978.4
20260505082007 38 322 12.0 14.0 0.00 0.00 0.00 46 978.9
20260505081506 38 295 11.0 17.0 0.00 0.00 0.00 47 978.8
20260505081006 37 290 17.0 17.0 0.00 0.00 0.00 46 979.8
20260505080505 38 349 18.0 18.0 0.00 0.00 0.00 44 980.0
20260505080004 38 340 8.0 8.0 0.00 0.00 0.00 45 979.3
20260505075504 38 287 13.0 13.0 0.00 0.00 0.00 46 979.8
20260505075003 38 287 13.0 13.0 0.00 0.00 0.00 46 979.8
20260505074509 38 287 13.0 13.0 0.00 0.00 0.00 46 979.8
20260505074009 38 316 11.0 14.0 0.00 0.00 0.00 46 980.0
20260505073508 38 279 10.0 14.0 0.00 0.00 0.00 46 980.4
20260505073007 38 317 14.0 18.0 0.00 0.00 0.00 44 979.7
20260505072007 39 348 11.0 19.0 0.00 0.00 0.00 45 978.9
20260505071506 38 307 9.0 13.0 0.00 0.00 0.00 46 979.4
20260505071005 38 303 13.0 19.0 0.00 0.00 0.00 45 979.6
20260505070505 38 348 9.0 12.0 0.00 0.00 0.00 46 979.3
20260505070004 38 314 13.0 16.0 0.00 0.00 0.00 45 979.8
20260505065510 39 328 10.0 16.0 0.00 0.00 0.00 46 980.0
20260505064508 40 336 13.0 15.0 0.00 0.00 0.00 46 979.6
20260505064007 39 327 13.0 17.0 0.00 0.00 0.00 45 979.3
20260505063506 40 328 13.0 17.0 0.00 0.00 0.00 45 980.0
20260505062506 39 266 5.0 5.0 0.00 0.00 0.00 46 980.0
20260505062005 39 266 5.0 5.0 0.00 0.00 0.00 46 980.0
20260505061005 39 259 8.0 8.0 0.00 0.00 0.00 47 979.7
20260505060504 40 335 16.0 16.0 0.00 0.00 0.00 44 979.7
20260505060003 39 333 15.0 15.0 0.00 0.00 0.00 45 979.2
20260505055509 39 337 17.0 20.0 0.00 0.00 0.00 43 980.7
20260505055008 38 304 14.0 17.0 0.00 0.00 0.00 44 979.7
20260505054508 39 333 16.0 19.0 0.00 0.00 0.00 44 980.1
20260505054007 38 305 14.0 17.0 0.00 0.00 0.00 45 980.3
20260505053506 38 322 15.0 18.0 0.00 0.00 0.00 45 979.8
20260505053006 39 333 14.0 17.0 0.00 0.00 0.00 46 980.2
20260505052505 38 332 14.0 20.0 0.00 0.00 0.00 46 979.6
20260505052005 38 268 14.0 18.0 0.00 0.00 0.00 47 979.3
20260505051504 38 316 10.0 19.0 0.00 0.00 0.00 47 979.8
20260505051004 38 292 9.0 14.0 0.00 0.00 0.00 48 979.4
20260505050521 38 291 14.0 21.0 0.00 0.00 0.00 46 980.0
20260505041504 41 271 9.0 11.0 0.00 0.00 0.00 48 980.9
20260505041003 41 295 17.0 17.0 0.00 0.00 0.00 47 981.5
20260505040503 41 295 17.0 17.0 0.00 0.00 0.00 47 981.5
20260505040007 40 301 11.0 11.0 0.00 0.00 0.00 46 980.3
20260505035507 40 310 11.0 11.0 0.00 0.00 0.00 46 980.3
20260505035006 41 306 9.0 9.0 0.00 0.00 0.00 48 981.1
20260505034505 41 306 9.0 9.0 0.00 0.00 0.00 48 981.1
20260505034005 41 306 9.0 9.0 0.00 0.00 0.00 48 981.1
20260505033504 40 253 5.0 9.0 0.00 0.00 0.00 51 980.4
20260505032009 41 30 8.0 17.0 0.00 0.00 0.00 49 980.5
20260505031508 41 6 12.0 16.0 0.00 0.00 0.00 47 980.3
20260505031008 41 27 9.0 12.0 0.00 0.00 0.00 49 980.7
20260505030507 41 72 9.0 15.0 0.00 0.00 0.00 50 980.9
20260505030005 41 108 5.0 10.0 0.00 0.00 0.00 54 980.0
20260505025505 41 131 5.0 10.0 0.00 0.00 0.00 51 980.2
20260505024504 42 9 10.0 17.0 0.00 0.00 0.00 47 979.8
20260505024003 41 1 11.0 15.0 0.00 0.00 0.00 47 979.8
20260505023509 42 27 12.0 17.0 0.00 0.00 0.00 48 979.6
20260505023008 41 358 10.0 17.0 0.00 0.00 0.00 50 979.4
20260505022508 42 102 9.0 16.0 0.00 0.00 0.00 51 979.3
20260505022007 41 49 10.0 13.0 0.00 0.00 0.00 48 979.4
20260505021507 41 345 10.0 12.0 0.00 0.00 0.00 47 979.4
20260505021006 41 14 12.0 12.0 0.00 0.00 0.00 48 980.4
20260505020504 41 10 15.0 19.0 0.00 0.00 0.00 45 980.2
20260505020004 40 4 22.0 26.0 0.00 0.00 0.00 46 979.9
20260505015503 41 32 5.0 6.0 0.00 0.00 0.00 49 980.3
20260505015008 41 332 6.0 7.0 0.00 0.00 0.00 50 979.8
20260505014508 40 347 4.0 6.0 0.00 0.00 0.00 51 980.3
20260505014007 40 358 5.0 7.0 0.00 0.00 0.00 52 980.8
20260505013507 40 33 5.0 7.0 0.00 0.00 0.00 50 979.8
20260505013006 40 1 9.0 9.0 0.00 0.00 0.00 49 980.1
20260505012505 40 4 9.0 11.0 0.00 0.00 0.00 49 979.7
20260505012005 41 7 9.0 9.0 0.00 0.00 0.00 49 979.7
20260505011504 40 9 9.0 10.0 0.00 0.00 0.00 48 979.8
20260505011004 40 30 7.0 8.0 0.00 0.00 0.00 49 980.1
20260505010509 40 359 7.0 7.0 0.00 0.00 0.00 49 979.9
20260505010009 40 359 7.0 7.0 0.00 0.00 0.00 50 980.0
20260505005507 40 15 8.0 9.0 0.00 0.00 0.00 52 979.5
20260505005007 40 241 4.0 6.0 0.00 0.00 0.00 59 979.9
20260505004006 40 266 4.0 10.0 0.00 0.00 0.00 57 980.4
20260505003506 40 354 2.0 5.0 0.00 0.00 0.00 59 980.3
20260505002505 41 218 3.0 5.0 0.00 0.00 0.00 62 980.1
20260505002004 40 226 10.0 20.0 0.00 0.00 0.00 58 979.6
20260505001504 41 121 6.0 11.0 0.00 0.00 0.00 63 979.8
20260505001003 40 228 7.0 12.0 0.00 0.00 0.00 60 978.6
20260505000509 40 244 6.0 13.0 0.00 0.00 0.00 59 979.4
20260505000008 40 258 6.0 13.0 0.00 0.00 0.00 57 979.5
20260504235507 40 246 2.0 7.0 0.00 0.00 0.00 62 979.1
20260504235007 39 233 5.0 13.0 0.00 0.00 0.00 57 979.3
20260504234506 38 275 4.0 15.0 0.00 0.00 0.00 56 979.9
20260504234005 37 332 4.0 5.0 0.00 0.00 0.00 46 981.0
20260504233505 37 357 4.0 8.0 0.00 0.00 0.00 42 981.8
20260504233004 39 187 28.0 33.0 0.00 0.00 0.00 38 981.8
20260504232503 40 177 24.0 28.0 0.00 0.00 0.00 38 981.5
20260504232003 40 177 19.0 29.0 0.00 0.00 0.00 38 981.5
20260504231508 41 172 21.0 28.0 0.00 0.00 0.00 34 982.3
20260504231007 41 169 14.0 22.0 0.00 0.00 0.00 34 982.3
20260504230507 42 187 13.0 20.0 0.00 0.00 0.00 27 981.8
20260504230006 42 173 18.0 27.0 0.00 0.00 0.00 26 981.0
20260504225505 44 177 20.0 26.0 0.00 0.00 0.00 22 981.9
20260504225005 44 183 17.0 25.0 0.00 0.00 0.00 19 982.3
20260504224504 47 194 4.0 15.0 0.00 0.00 0.00 16 982.6